COSMOS 1275 DEB, 12736

Orbit data source: Space-Track

COSMOS 1275 DEB, 12736 is space debris in LEO originally from a launch on Thu, 04 Jun 1981 UTC launched from the Plesetsk Missile And Space Complex (PKMTR). Debris objects in space refer to the collection of defunct objects orbiting the Earth. Examples of debris include non-operational satellites, rocket bodies, and fragments generated from explosions, collisions, or faulty payload assembly.

Loading next visibility...
Identifier
12736, 1981-053CD
Orbit
LEO
Country
Flag of CISCIS
Related business
Manufacturer
Unknown
Mission
Spacecraft
Bus & Motor
Unknown
Mass
Unknown
Launch date (UTC)
1981-06-04 (45 years ago)
Launch vehicle
Unknown
Launch site
Plesetsk Missile And Space Complex (PKMTR)
Object type
Payload
Rocket body
Debris
Shape & HBR
Unknown shape, 0.1 m
Radar Cross Section
Small (<0.1 m²)

Expand to show TLE details & history
Last TLE update: 10 hours ago

TLE from 10 hours ago
0 COSMOS 1275 DEB
1 12736U 81053CD  26074.24570397  .00000358  00000-0  45015-3 0  9996
2 12736  83.0326 168.9225 0132957 160.0957 263.0241 13.57657711202679
Epoch: 2026-03-15T05:53Z
TLE epoch observation values (Epoch: 2026-03-15T05:53:48.823Z)
Latitude
60.92845°
Longitude
-79.75414°
Altitude
1,067.893 km
Speed
7.317 km/s
True Right ascension
12h 06m 13s
True Declination
60° 47' 18"
Sunlit
Object was in full shadow at epoch
Visualization orbit readout
Latitude
Unknown
Longitude
Unknown
Altitude
Unknown
Speed
Unknown
Apparent Right ascension
Unknown
Apparent Declination
Unknown
Sunlit
N/A
Visualization observer readout
Local Sidereal Time
20:01:21
Azimuth
Unknown
Elevation
Unknown
Doppler factor
Unknown
Orbital elements
Apogee altitude
1,140.033 km
Perigee altitude
942.738 km
Semi-major axis
7,419.522 km
Eccentricity
0.0133
Inclination
83.0326°
RAAN
168.9225°
Arg. of periapsis
160.0957°
True anomaly
261.51502°
Mean anomaly
263.0241°
Eccentric anomaly
262.26924°
Mean motion
3.39609 °/min
Orbital period
106 mins
BSTAR
0.00045015
Loading maneuver chart data...
Computing Atmospheric mass density...

Documentation

Showing up to 5 results
|